Tracking 30260 objects as of 14-Feb-2025
HD Live streaming from Space Station
objects crossing your sky now

CZ-4 DEB

Track CZ-4 DEB now!
10-day predictions


NORAD ID: 37615
Int'l Code: 1990-081DB
Perigee: 780.2 km
Apogee: 799.7 km
Inclination: 98.5 °
Period: 100.5 minutes
Semi major axis: 7160 km
RCS: 0.0076 m2 (small)
Launch date: September 3, 1990
Source: People's Republic of China (PRC)
Launch site: Taiyaun Space Center, China (TSC)

Note: This is SATELLITE DEBRIS
Your satellite tracking list
Your tracking list is empty




NASA's NSSDC Master Catalog

Two Line Element Set (TLE):
1 37615U 90081DB  25041.22420935  .00002972  00000-0  11075-2 0  9995
2 37615  98.5295  41.9496 0013628 278.1863  81.7775 14.32667397 73395
Source of the keplerian elements: AFSPC